Regional Weather Roundup
Issued by NWS Raleigh/Durham, NC

Home | Current Version | Previous Version | Text Only | Print | Product List | Glossary On
Versions: 1 2 3 4 5 6 7 8 9 10 11 12 13 14 15 16 17 18 19 20 21 22 23 24 25 26 27 28 29 30 31 32 33 34 35 36 37 38 39 40 41 42 43 44 45 46 47 48 49 50
000
ASUS42 KRAH 280610
RWRRAH
NORTH CAROLINA WEATHER ROUNDUP
NATIONAL WEATHER SERVICE RALEIGH NC
200 AM EDT TUE JUL 28 2015

NOTE: "FAIR" INDICATES FEW OR NO CLOUDS BELOW 12,000 FEET WITH NO
SIGNIFICANT WEATHER AND/OR OBSTRUCTIONS TO VISIBILITY.

NCZ001-053-055-056-065-067-280700-
WESTERN NORTH CAROLINA

CITY           SKY/WX    TMP DP  RH WIND       PRES   REMARKS
ASHEVILLE      PTCLDY    72  68  87 CALM      30.10F
JEFFERSON      PTCLDY    67  66  96 CALM      30.16R
MORGANTON      PTCLDY    71  70  97 CALM      30.09F
HICKORY        PTCLDY    74  70  87 CALM      30.05S
RUTHERFORDTON  PTCLDY    73  73  99 CALM      30.05S
MOUNT AIRY     MOCLDY    76  71  85 SE3       30.08S
BOONE          RAIN      66  66  99 CALM      30.16S
$$

NCZ021-022-025-041-071-084-088-280700-
CENTRAL NORTH CAROLINA

CITY           SKY/WX    TMP DP  RH WIND       PRES   REMARKS
CHARLOTTE      CLOUDY    77  71  82 SE7       30.03F
GREENSBORO     MOCLDY    73  70  90 CALM      30.04S
WINSTON-SALEM  MOCLDY    75  69  81 VRB5      30.06R
RALEIGH-DURHAM MOCLDY    77  70  79 S3        30.03R
FORT BRAGG     MOCLDY    76  71  83 SE2       30.00F
FAYETTEVILLE   MOCLDY    75  70  84 CALM      30.01S
BURLINGTON     CLOUDY    75  71  87 SW3       30.04R
LAURINBURG     MOCLDY    75  71  87 CALM      30.02S
$$

NCZ011-015-027-028-043-044-047-080-103-280700-
NORTHEASTERN NORTH CAROLINA

CITY           SKY/WX    TMP DP  RH WIND       PRES   REMARKS
ROCKY MT-WILSO CLEAR     73  71  93 CALM      30.02S
GREENVILLE     CLEAR     72  72 100 CALM      30.03F
WASHINGTON     CLEAR     72  70  94 CALM      30.02S
ELIZABETH CITY CLEAR     72  70  93 CALM      30.02F
MANTEO         CLEAR     72  68  89 CALM      30.03S
CAPE HATTERAS  CLEAR     75  70  84 E3        30.01F
$$

NCZ078-087-090-091-093-098-101-280700-
SOUTHEASTERN NORTH CAROLINA

CITY           SKY/WX    TMP DP  RH WIND       PRES   REMARKS
LUMBERTON      MOCLDY    76  71  85 N3        30.00S
GOLDSBORO      MOCLDY    73  71  94 SE2       30.00S
KINSTON        MOCLDY    72  70  95 CALM      30.03S
KENANSVILLE    CLEAR     71  69  95 CALM      30.03S
NEW BERN       CLEAR     73  70  90 CALM      30.02F
CHERRY POINT   CLEAR     74  71  91 CALM      30.02S
BEAUFORT       CLEAR     77  71  82 E3        30.00S
JACKSONVILLE   PTCLDY    76  71  85 N5        30.00S
WILMINGTON     CLEAR     73  71  93 CALM      30.00R
$$



USA.gov is the U.S. government's official web portal to all federal, state and local government web resources and services.